Lid_Strength_Index
2 1 0 0 0 0 1 2 2 2 3 3 4 5 5 5 5 4 3 2 0 0 1 1 1 2 2 2 1 1 1 1 2 2 3 3 2 2 2 1 1 0 -0
0 0 1 1 1 2 3 3 4 4 5 5 6 6 6 5 5 4 4 3 3 3 3 3 3 3 3 3 2 2 2 2 3 4 4 3 3 2 2 2 1 1 0
0 2 3 3 4 4 4 4 5 5 6 7 8 7 7 6 5 6 6 6 7 6 5 5 5 5 4 3 2 2 2 3 4 4 4 3 3 3 2 2 1 1 0
3 4 4 5 5 6 5 6 6 7 8 8 9 8 8 7 7 7 8 9 10 10 8 6 6 5 4 2 2 3 3 4 4 4 4 4 3 2 2 1 1 0 -0
5 6 5 6 6 7 8 7 8 8 10 10 9 9 8 9 9 9 10 11 11 11 11 9 7 5 4 4 4 4 4 4 4 4 4 4 3 2 2 1 1 0 0
7 7 7 7 7 8 9 9 9 9 10 11 8 8 10 10 10 11 12 12 12 12 12 12 11 7 5 5 5 5 5 5 5 4 4 3 3 2 2 2 1 1 1
8 8 8 8 9 10 10 10 9 10 11 11 10 10 11 11 11 12 13 14 13 13 12 12 9 9 10 9 8 6 5 4 4 4 3 3 3 3 2 2 2 2 2
9 9 9 10 10 11 11 11 11 11 11 12 13 12 13 12 11 12 14 14 14 13 12 10 11 12 13 13 11 8 6 5 4 4 4 4 4 3 3 3 3 3 2
11 10 10 11 11 11 12 12 12 12 14 13 13 13 15 14 14 12 14 14 14 14 13 12 13 13 13 13 12 10 7 6 5 5 5 5 4 4 4 4 4 3 3
12 11 11 11 12 12 13 13 13 13 13 15 14 13 14 14 16 16 13 14 14 13 13 13 14 13 13 13 11 10 9 8 8 7 6 6 5 5 5 5 4 4 4
12 12 12 12 13 13 14 14 14 15 15 15 15 15 15 15 15 15 17 16 15 14 13 13 14 14 13 12 12 11 9 9 9 8 8 8 7 7 6 6 5 5 5
13 13 13 13 12 13 14 14 15 15 16 16 16 15 16 16 16 17 17 17 16 14 13 13 14 13 13 13 12 11 11 11 10 9 9 9 9 8 8 7 7 6 6
14 14 14 13 14 14 14 15 15 16 16 17 16 17 16 16 15 16 16 17 17 15 14 14 13 13 13 14 14 12 12 12 11 10 10 11 10 10 9 8 8 8 8
13 13 14 13 14 15 15 15 16 16 16 17 17 17 17 16 15 15 15 16 18 17 15 15 14 14 14 14 14 13 15 13 12 12 12 11 11 10 10 10 9 9 8
13 14 14 15 16 16 16 16 16 16 16 16 17 17 16 16 15 16 16 16 16 18 18 15 17 15 15 15 15 15 16 15 13 13 13 12 12 11 11 10 10 9 9
14 15 16 16 16 16 16 16 16 16 16 16 16 16 16 16 17 16 16 16 15 16 18 16 17 16 15 15 15 16 17 15 15 15 14 12 12 12 11 11 10 10 9
16 16 15 15 15 15 15 16 16 16 17 16 16 16 16 16 17 17 15 16 16 16 18 18 17 16 17 17 17 17 17 18 17 15 14 13 12 12 12 11 11 10 10
16 15 14 14 14 15 15 16 16 16 16 16 16 16 16 16 17 16 16 16 16 16 18 19 18 18 18 18 18 19 18 17 17 15 14 13 13 13 12 12 12 11 12
15 14 14 15 15 15 15 15 16 15 15 15 16 16 16 16 16 17 17 17 17 17 17 18 19 18 19 19 19 19 19 18 17 15 15 14 14 13 12 12 12 12 12
15 15 15 15 15 15 15 15 15 15 15 15 15 15 15 16 16 16 16 17 17 18 18 19 19 20 20 19 19 21 21 19 19 17 16 16 15 14 13 12 12 12 10
16 16 16 15 15 15 14 15 15 16 16 16 15 15 15 15 14 15 16 17 17 18 19 20 21 21 21 21 22 20 21 20 19 19 19 19 18 17 17 14 12 10 8
16 16 16 16 16 14 12 12 14 15 15 15 15 15 15 15 15 15 15 15 16 19 19 21 21 22 21 21 20 21 21 22 24 19 21 21 18 19 17 14 10 9 8
17 17 17 16 16 15 12 12 12 15 15 15 15 15 15 15 16 16 16 16 17 17 17 19 21 21 21 20 20 21 21 22 23 21 21 23 19 20 16 13 10 9 8
17 17 16 16 16 16 12 12 12 14 15 15 15 15 16 16 16 16 17 18 19 19 19 18 19 20 19 19 19 19 21 22 22 20 19 24 19 19 16 14 11 9 9
17 17 16 16 17 16 13 12 12 14 14 15 15 16 16 17 16 15 18 19 19 19 18 17 17 17 17 17 17 21 25 25 26 23 19 21 19 19 17 16 13 11 10
16 17 16 17 17 17 13 12 12 14 15 16 16 16 15 16 15 15 18 20 22 20 21 23 22 21 20 20 18 20 22 26 25 26 19 21 19 19 22 17 16 15 15